Location: Newark
(47.3150°N, 5.1150°E)
Time: 20:49:13
(UTC+00:00)

O/OREOS (USA 219) - Pass Details

Date: 19 December 2019
Orbit: 621 x 646 km, 72.0° (Epoch: 22 May)

Event Time Altitude Azimuth Distance (km) Brightness Sun altitude
Exits shadow 05:41:42 26° 309° (NW) 1,255 ? -16.1°
Maximum altitude 05:43:51 46° 251° (WSW) 856 ? -15.8°
Drops below altitude 10° 05:48:11 10° 178° (S) 2,016 ? -15.1°
Sets 05:50:30 0° 173° (S) 2,915 ? -14.7°
